IZ1WIY-2 Weather Reports


time (UTC)temp
C
wind
direction
speed
KPH
gust
KPH
rain 1hr
cm
rain 24hr
cm
rain mn
cm
humidity
%
barometer
mb
20260507172503 18 217 4.8 6.4 0.00 0.00 0.00 74 1013.3
20260507172003 18 215 4.8 6.4 0.00 0.00 0.00 73 1013.3
20260507171503 18 214 4.8 6.4 0.00 0.00 0.00 73 1013.3
20260507171003 18 211 4.8 6.4 0.00 0.00 0.00 73 1013.3
20260507170503 18 212 4.8 8.0 0.00 0.00 0.00 72 1013.3
20260507170003 18 218 4.8 8.0 0.00 0.00 0.00 72 1013.3
20260507165503 18 217 4.8 6.4 0.00 0.00 0.00 72 1013.2
20260507165003 18 215 4.8 6.4 0.00 0.00 0.00 72 1013.2
20260507164504 18 214 4.8 6.4 0.00 0.00 0.00 70 1013.2
20260507164003 19 213 4.8 6.4 0.00 0.00 0.00 71 1013.2
20260507163503 19 214 4.8 6.4 0.00 0.00 0.00 71 1013.3
20260507163003 19 214 4.8 6.4 0.00 0.00 0.00 71 1013.3
20260507162503 19 215 4.8 8.0 0.00 0.00 0.00 71 1013.2
20260507162003 20 213 4.8 8.0 0.00 0.00 0.00 71 1013.3
20260507161503 20 212 4.8 8.0 0.00 0.00 0.00 72 1013.2
20260507161003 19 212 6.4 8.0 0.00 0.00 0.00 71 1013.3
20260507160503 20 212 6.4 8.0 0.00 0.00 0.00 72 1013.4
20260507160003 19 213 4.8 8.0 0.00 0.00 0.00 71 1013.4
20260507155503 19 213 4.8 8.0 0.00 0.00 0.00 72 1013.4
20260507155003 18 212 4.8 6.4 0.00 0.00 0.00 71 1013.4
20260507154503 18 211 4.8 6.4 0.00 0.00 0.00 72 1013.4
20260507154003 18 212 4.8 6.4 0.00 0.00 0.00 71 1013.5
20260507153504 20 212 4.8 8.0 0.00 0.00 0.00 71 1013.6
20260507153003 20 211 6.4 9.7 0.00 0.00 0.00 72 1013.5
20260507152504 20 212 6.4 9.7 0.00 0.00 0.00 72 1013.5
20260507152003 19 214 6.4 9.7 0.00 0.00 0.00 72 1013.5
20260507151503 19 215 6.4 9.7 0.00 0.00 0.00 72 1013.5
20260507151003 19 217 6.4 9.7 0.00 0.00 0.00 72 1013.5
20260507150503 20 216 6.4 9.7 0.00 0.00 0.00 72 1013.5
20260507150003 20 213 6.4 9.7 0.00 0.00 0.00 71 1013.5
20260507145503 20 214 6.4 9.7 0.00 0.00 0.00 71 1013.5
20260507145003 20 216 6.4 9.7 0.00 0.00 0.00 71 1013.5
20260507144504 20 217 6.4 8.0 0.00 0.00 0.00 72 1013.5
20260507144003 20 215 6.4 9.7 0.00 0.00 0.00 72 1013.7
20260507143503 20 214 6.4 9.7 0.00 0.00 0.00 72 1013.7
20260507143003 19 216 8.0 9.7 0.00 0.00 0.00 72 1013.7
20260507142506 19 215 8.0 9.7 0.00 0.00 0.00 72 1013.7
20260507142003 19 215 8.0 14.5 0.00 0.00 0.00 72 1013.7
20260507141503 19 215 8.0 14.5 0.00 0.00 0.00 72 1013.7
20260507141003 19 215 9.7 11.3 0.00 0.00 0.00 72 1013.8
20260507140503 19 214 8.0 11.3 0.00 0.00 0.00 72 1013.9
20260507140003 19 214 8.0 11.3 0.00 0.00 0.00 72 1013.8
20260507135503 19 214 8.0 11.3 0.00 0.00 0.00 72 1013.9
20260507135003 19 212 8.0 11.3 0.00 0.00 0.00 72 1013.9
20260507134503 19 210 8.0 11.3 0.00 0.00 0.00 72 1013.9
20260507134003 19 211 8.0 11.3 0.00 0.00 0.00 72 1013.9
20260507133503 19 210 8.0 11.3 0.00 0.00 0.00 73 1014.1
20260507133003 19 205 8.0 12.9 0.00 0.00 0.00 73 1014.1
20260507132503 18 208 8.0 12.9 0.00 0.00 0.00 72 1014.0
20260507132003 19 210 9.7 12.9 0.00 0.00 0.00 74 1014.0
20260507131503 18 210 9.7 12.9 0.00 0.00 0.00 74 1014.1
20260507131003 18 210 9.7 12.9 0.00 0.00 0.00 73 1014.1
20260507130503 19 210 9.7 14.5 0.00 0.00 0.00 74 1014.1
20260507130005 19 211 9.7 14.5 0.00 0.00 0.00 74 1014.1
20260507125503 18 209 9.7 17.7 0.00 0.00 0.00 74 1014.1
20260507125003 18 205 9.7 17.7 0.00 0.00 0.00 73 1014.1
20260507124503 18 205 9.7 14.5 0.00 0.00 0.00 73 1014.1
20260507124003 18 208 9.7 12.9 0.00 0.00 0.00 73 1014.0
20260507123503 19 207 11.3 17.7 0.00 0.00 0.00 73 1014.0
20260507123004 18 203 11.3 17.7 0.00 0.00 0.00 74 1013.9
20260507122503 18 199 11.3 17.7 0.00 0.00 0.00 74 1013.9
20260507122004 18 200 11.3 17.7 0.00 0.00 0.00 74 1013.9
20260507121503 18 201 11.3 17.7 0.00 0.00 0.00 74 1013.9
20260507121003 18 200 11.3 17.7 0.00 0.00 0.00 74 1013.8
20260507120503 18 200 12.9 19.3 0.00 0.00 0.00 74 1013.9
20260507120004 18 202 12.9 19.3 0.00 0.00 0.00 75 1013.9
20260507115503 18 205 12.9 16.1 0.00 0.00 0.00 75 1013.9
20260507115003 18 208 12.9 22.5 0.00 0.00 0.00 75 1013.9
20260507114503 18 207 14.5 22.5 0.00 0.00 0.00 75 1013.9
20260507114003 18 206 14.5 19.3 0.00 0.00 0.00 75 1013.9
20260507113503 18 213 14.5 20.9 0.00 0.00 0.00 75 1014.0
20260507113004 18 210 14.5 20.9 0.00 0.00 0.00 75 1014.0
20260507112503 18 202 14.5 20.9 0.00 0.00 0.00 75 1014.1
20260507112003 18 203 14.5 24.1 0.00 0.00 0.00 75 1014.1
20260507111504 18 203 14.5 24.1 0.00 0.00 0.00 74 1014.1
20260507111003 18 205 14.5 20.9 0.00 0.00 0.00 74 1014.2
20260507110503 18 205 14.5 20.9 0.00 0.00 0.00 75 1014.1
20260507110004 17 202 14.5 20.9 0.00 0.00 0.00 75 1014.1
20260507105503 18 199 14.5 20.9 0.00 0.00 0.00 75 1014.0
20260507105003 18 202 14.5 20.9 0.00 0.00 0.00 75 1014.0
20260507104503 18 215 14.5 20.9 0.00 0.00 0.00 75 1014.0
20260507104003 18 217 14.5 19.3 0.00 0.00 0.00 76 1014.0
20260507103503 17 208 16.1 20.9 0.00 0.00 0.00 76 1014.1
20260507103003 18 206 16.1 20.9 0.00 0.00 0.00 76 1014.1
20260507102503 17 203 14.5 22.5 0.00 0.00 0.00 76 1014.1
20260507102003 18 203 14.5 22.5 0.00 0.00 0.00 76 1014.2
20260507101503 18 206 16.1 22.5 0.00 0.00 0.00 76 1014.2
20260507101003 18 208 16.1 25.7 0.00 0.00 0.00 76 1014.2
20260507100503 18 206 16.1 25.7 0.00 0.00 0.00 76 1014.1
20260507100004 17 206 14.5 22.5 0.00 0.00 0.00 76 1014.2
20260507095503 18 218 14.5 22.5 0.00 0.00 0.00 76 1014.2
20260507095003 17 225 14.5 19.3 0.00 0.00 0.00 76 1014.2
20260507094503 17 222 14.5 20.9 0.00 0.00 0.00 76 1014.2
20260507094003 17 219 14.5 20.9 0.00 0.00 0.00 76 1014.2
20260507093503 17 220 14.5 20.9 0.00 0.00 0.00 76 1014.2
20260507093003 17 221 14.5 24.1 0.00 0.00 0.00 76 1014.2
20260507092503 17 223 14.5 24.1 0.00 0.00 0.00 76 1014.1
20260507092003 17 227 14.5 19.3 0.00 0.00 0.00 76 1014.1
20260507091503 17 221 16.1 20.9 0.00 0.00 0.00 76 1014.0
20260507091003 17 219 16.1 22.5 0.00 0.00 0.00 76 1014.1
20260507090503 17 220 16.1 30.6 0.00 0.00 0.00 76 1014.1
20260507090004 17 223 14.5 30.6 0.00 0.00 0.00 76 1014.0
20260507085503 17 222 14.5 22.5 0.00 0.00 0.00 76 1014.0
20260507085003 17 225 12.9 20.9 0.00 0.00 0.00 76 1014.0
20260507084503 17 230 12.9 20.9 0.00 0.00 0.00 75 1013.9
20260507084003 17 227 12.9 22.5 0.00 0.00 0.00 76 1013.9
20260507083503 17 233 11.3 22.5 0.00 0.00 0.00 75 1013.8
20260507083003 17 240 11.3 19.3 0.00 0.00 0.00 75 1013.7
20260507082503 17 244 9.7 19.3 0.00 0.00 0.00 75 1013.7
20260507082003 17 248 11.3 17.7 0.00 0.00 0.00 76 1013.6
20260507081503 17 240 12.9 19.3 0.00 0.00 0.00 76 1013.7
20260507081003 17 228 12.9 20.9 0.00 0.00 0.00 76 1013.7
20260507080503 17 227 12.9 20.9 0.00 0.00 0.00 75 1013.6
20260507080004 17 229 12.9 17.7 0.00 0.00 0.00 75 1013.5
20260507075503 17 228 11.3 19.3 0.00 0.00 0.00 75 1013.5
20260507075003 17 228 8.0 19.3 0.00 0.00 0.00 75 1013.5
20260507074503 17 229 8.0 14.5 0.00 0.00 0.00 75 1013.4
20260507074004 17 240 6.4 17.7 0.00 0.00 0.00 76 1013.5
20260507073503 17 252 4.8 17.7 0.00 0.00 0.00 76 1013.4
20260507073004 17 245 4.8 12.9 0.00 0.00 0.00 76 1013.4
20260507072503 17 222 4.8 14.5 0.00 0.00 0.00 76 1013.5
20260507072003 17 209 3.2 14.5 0.00 0.03 0.00 75 1013.5
20260507071504 17 213 3.2 9.7 0.00 0.03 0.00 76 1013.4
20260507071003 17 236 3.2 9.7 0.00 0.03 0.00 76 1013.4
20260507070503 17 236 1.6 12.9 0.00 0.03 0.00 76 1013.4
20260507070005 17 221 1.6 12.9 0.00 0.03 0.00 76 1013.3
20260507065503 17 205 1.6 6.4 0.00 0.03 0.00 77 1013.2
20260507065003 17 199 1.6 9.7 0.00 0.03 0.00 77 1013.0
20260507064503 17 214 1.6 9.7 0.00 0.03 0.00 77 1013.1
20260507064003 17 238 1.6 6.4 0.00 0.03 0.00 77 1013.1
20260507063503 17 277 1.6 4.8 0.00 0.03 0.00 77 1013.0
20260507063003 16 280 1.6 8.0 0.00 0.03 0.00 77 1013.0
20260507062503 16 282 0.0 8.0 0.00 0.03 0.00 77 1012.9
20260507062003 16 0 0.0 3.2 0.00 0.03 0.00 77 1012.8
20260507061503 16 296 0.0 4.8 0.00 0.03 0.00 77 1012.8
20260507061003 16 307 1.6 4.8 0.00 0.03 0.00 78 1012.8
20260507060503 16 315 1.6 6.4 0.00 0.03 0.00 78 1012.9
20260507060003 16 313 1.6 6.4 0.00 0.03 0.00 78 1012.8
20260507055503 16 317 1.6 4.8 0.00 0.03 0.00 78 1012.8
20260507055003 16 302 1.6 4.8 0.00 0.03 0.00 78 1012.7
20260507054503 16 264 1.6 4.8 0.00 0.03 0.00 79 1012.8
20260507054003 16 244 1.6 6.4 0.00 0.05 0.00 79 1012.7
20260507053503 16 238 1.6 6.4 0.00 0.05 0.00 79 1012.6
20260507053004 16 257 1.6 6.4 0.00 0.18 0.00 79 1012.6
20260507052503 16 328 1.6 6.4 0.00 0.38 0.00 79 1012.5
20260507052003 15 350 1.6 6.4 0.00 0.51 0.00 79 1012.4
20260507051503 15 333 0.0 8.0 0.00 0.66 0.00 78 1012.4
20260507051003 15 292 0.0 8.0 0.00 1.02 0.00 78 1012.4
20260507050503 15 214 0.0 6.4 0.00 1.12 0.00 79 1012.3
20260507050004 15 272 1.6 6.4 0.00 1.12 0.00 79 1012.3
20260507045503 15 297 1.6 4.8 0.00 1.12 0.00 79 1012.3
20260507045003 15 295 1.6 6.4 0.00 1.12 0.00 79 1012.2
20260507044503 15 292 1.6 6.4 0.00 1.17 0.00 79 1012.2
20260507044003 15 301 1.6 6.4 0.00 1.22 0.00 79 1012.2
20260507043503 15 321 1.6 6.4 0.00 1.22 0.00 80 1012.1
20260507043003 15 329 1.6 4.8 0.00 1.22 0.00 80 1012.1
20260507042503 15 331 1.6 4.8 0.00 1.22 0.00 80 1012.1
20260507042003 15 326 1.6 6.4 0.00 1.22 0.00 80 1012.1
20260507041503 15 323 0.0 6.4 0.00 1.22 0.00 80 1012.0
20260507041003 15 0 0.0 3.2 0.00 1.22 0.00 81 1011.9
20260507040503 15 0 0.0 1.6 0.00 1.22 0.00 81 1011.9
20260507040003 15 0 0.0 0.0 0.00 1.22 0.00 81 1012.0
20260507035504 15 314 0.0 3.2 0.00 1.27 0.00 81 1012.0
20260507035003 15 328 0.0 6.4 0.00 1.27 0.00 81 1012.1
20260507034503 15 0 0.0 6.4 0.00 1.27 0.00 81 1012.1
20260507034003 15 0 0.0 6.4 0.00 1.35 0.00 81 1012.1
20260507033503 15 0 0.0 6.4 0.00 1.35 0.00 81 1012.0
20260507033003 15 0 0.0 6.4 0.00 1.35 0.00 83 1012.1
20260507032503 15 0 0.0 1.6 0.00 1.35 0.00 81 1012.0
20260507032003 15 0 0.0 4.8 0.00 1.35 0.00 81 1011.9
20260507031503 15 347 0.0 4.8 0.00 1.35 0.00 81 1011.9
20260507031003 15 347 1.6 6.4 0.00 1.35 0.00 81 1012.0
20260507030503 15 346 3.2 6.4 0.00 1.35 0.00 81 1012.1
20260507030003 15 349 4.8 8.0 0.00 1.35 0.00 81 1012.0
20260507025503 15 352 4.8 11.3 0.00 1.35 0.00 81 1012.0
20260507025003 14 349 4.8 11.3 0.00 1.35 0.00 81 1012.1
20260507024503 14 346 3.2 9.7 0.00 1.35 0.00 81 1012.0
20260507024003 14 357 3.2 9.7 0.00 1.35 0.00 81 1012.0
20260507023503 14 22 3.2 8.0 0.00 1.35 0.00 81 1012.0
20260507023003 14 37 4.8 8.0 0.00 1.35 0.00 81 1012.1
20260507022503 14 38 4.8 9.7 0.00 1.35 0.00 81 1012.1
20260507022003 14 31 3.2 11.3 0.00 1.35 0.00 81 1012.1
20260507021503 14 21 3.2 11.3 0.00 1.35 0.00 81 1012.2
20260507021003 14 19 4.8 8.0 0.00 1.35 0.00 81 1012.1
20260507020503 14 23 4.8 12.9 0.00 1.35 0.00 81 1012.1
20260507020003 14 17 4.8 12.9 0.00 1.37 0.00 81 1012.1
20260507015503 14 17 4.8 11.3 0.00 1.37 0.00 81 1012.0
20260507015003 14 10 4.8 9.7 0.00 1.37 0.00 81 1012.0
20260507014503 14 360 4.8 11.3 0.00 1.45 0.00 81 1011.8
20260507014003 14 3 4.8 11.3 0.00 1.45 0.00 81 1011.8
20260507013503 14 28 4.8 8.0 0.00 1.55 0.00 81 1011.9
20260507013003 15 32 4.8 8.0 0.00 1.55 0.00 81 1012.1
20260507012503 15 16 4.8 8.0 0.00 1.57 0.00 81 1012.1
20260507012003 15 18 4.8 8.0 0.00 1.68 0.00 81 1012.1
20260507011503 15 27 4.8 8.0 0.00 1.75 0.00 81 1012.1
20260507011003 15 25 4.8 8.0 0.00 1.75 0.00 81 1012.2
20260507010503 15 24 4.8 8.0 0.00 1.75 0.00 81 1012.2
20260507010004 15 18 3.2 11.3 0.00 1.75 0.00 81 1012.1
20260507005503 15 9 3.2 11.3 0.00 1.75 0.00 80 1012.1
20260507005003 15 20 3.2 9.7 0.00 1.75 0.00 80 1012.2
20260507004503 15 26 1.6 8.0 0.00 1.75 0.00 83 1012.1
20260507004003 15 22 1.6 6.4 0.00 1.75 0.00 80 1012.1
20260507003503 15 14 1.6 4.8 0.00 1.75 0.00 81 1012.1
20260507003004 15 13 1.6 6.4 0.00 1.75 0.00 81 1012.1
20260507002503 15 12 1.6 6.4 0.00 1.75 0.00 81 1012.1
20260507002003 15 13 1.6 6.4 0.00 1.75 0.00 81 1012.0
20260507001503 15 13 1.6 6.4 0.00 1.75 0.00 81 1012.1
20260507001003 15 12 3.2 8.0 0.00 1.75 0.00 81 1012.0
20260507000503 15 26 3.2 9.7 0.00 1.75 0.00 81 1012.1
20260507000003 15 29 3.2 9.7 0.00 1.75 0.00 81 1012.1
20260506235503 15 26 3.2 6.4 0.00 1.75 0.00 81 1012.1
20260506235003 15 18 3.2 6.4 0.00 1.75 0.00 81 1012.2
20260506234503 15 10 3.2 11.3 0.00 1.75 0.00 81 1012.2
20260506234003 15 11 4.8 11.3 0.00 1.75 0.00 81 1012.3
20260506233503 15 18 4.8 9.7 0.00 1.75 0.00 81 1012.2
20260506233003 15 22 3.2 9.7 0.00 1.75 0.00 81 1012.2
20260506232503 15 16 1.6 8.0 0.00 1.75 0.00 81 1012.3
20260506232003 15 12 1.6 6.4 0.00 1.78 0.00 81 1012.3
20260506231504 15 13 1.6 3.2 0.00 1.78 0.00 81 1012.2
20260506231003 15 27 1.6 6.4 0.00 1.78 0.00 81 1012.2
20260506230503 15 25 1.6 6.4 0.00 1.80 0.00 81 1012.2
20260506230003 15 24 1.6 9.7 0.00 1.80 0.00 81 1012.2
20260506225503 15 26 0.0 9.7 0.00 1.80 0.00 81 1012.2
20260506225003 15 22 0.0 1.6 0.00 1.80 0.00 81 1012.2
20260506224503 15 22 1.6 3.2 0.00 1.80 0.00 81 1012.2
20260506224003 15 24 3.2 6.4 0.00 1.80 0.00 81 1012.1
20260506223503 15 20 3.2 8.0 0.00 1.80 0.00 81 1012.1
20260506223003 15 20 4.8 9.7 0.00 1.80 0.00 81 1012.1
20260506222503 15 27 4.8 9.7 0.00 1.80 0.00 81 1012.2
20260506222003 15 31 4.8 9.7 0.00 1.80 0.00 81 1012.2
20260506221504 15 33 4.8 8.0 0.00 1.80 0.00 81 1012.2
20260506221003 15 30 4.8 12.9 0.00 1.80 0.00 81 1012.2
20260506220503 15 25 4.8 12.9 0.00 1.80 0.00 81 1012.2
20260506220008 15 24 6.4 11.3 0.00 1.80 0.00 81 1012.2
20260506215503 15 30 6.4 11.3 0.00 1.80 1.80 81 1012.2
20260506215004 15 31 4.8 11.3 0.00 1.80 1.80 81 1012.2
20260506214503 15 22 4.8 9.7 0.00 1.80 1.80 81 1012.3
20260506214003 15 18 6.4 8.0 0.00 1.80 1.80 81 1012.3
20260506213503 15 28 6.4 11.3 0.00 1.80 1.80 81 1012.3
20260506213003 15 30 6.4 12.9 0.00 1.80 1.80 81 1012.3
20260506212503 15 27 6.4 12.9 0.00 1.80 1.80 81 1012.2
20260506212003 15 32 4.8 14.5 0.00 1.80 1.80 80 1012.3
20260506211503 15 30 3.2 14.5 0.00 1.80 1.80 80 1012.2
20260506211003 15 9 3.2 14.5 0.00 1.80 1.80 80 1012.2
20260506210503 15 345 4.8 6.4 0.00 1.80 1.80 81 1012.2
20260506210004 15 14 4.8 9.7 0.00 1.80 1.80 81 1012.2
20260506205503 15 28 4.8 9.7 0.00 1.80 1.80 80 1012.1
20260506205003 15 31 4.8 9.7 0.00 1.80 1.80 80 1012.1
20260506204503 15 34 4.8 8.0 0.00 1.80 1.80 80 1012.1
20260506204003 15 29 4.8 9.7 0.00 1.80 1.80 80 1012.1
20260506203503 15 23 4.8 9.7 0.00 1.80 1.80 80 1012.1
20260506203003 15 27 4.8 9.7 0.00 1.80 1.80 80 1012.0
20260506202503 15 28 4.8 9.7 0.00 1.80 1.80 80 1012.0
20260506202003 15 28 4.8 8.0 0.00 1.80 1.80 80 1011.9
20260506201503 15 28 6.4 8.0 0.00 1.80 1.80 80 1011.9
20260506201003 15 23 6.4 11.3 0.00 1.80 1.80 80 1011.8
20260506200503 15 31 4.8 12.9 0.00 1.80 1.80 80 1011.8
20260506200003 15 34 4.8 12.9 0.00 1.80 1.80 79 1011.8
20260506195503 15 22 4.8 8.0 0.00 1.80 1.80 79 1011.7
20260506195003 16 7 4.8 8.0 0.00 1.80 1.80 79 1011.6
20260506194503 16 15 4.8 8.0 0.00 1.80 1.80 79 1011.6
20260506194003 16 17 3.2 8.0 0.00 1.80 1.80 79 1011.5
20260506193503 16 2 3.2 6.4 0.00 1.80 1.80 78 1011.5
20260506193003 16 352 3.2 6.4 0.00 1.80 1.80 78 1011.4
20260506192503 16 344 3.2 6.4 0.00 1.80 1.80 78 1011.3
20260506192004 16 353 3.2 4.8 0.00 1.80 1.80 78 1011.3
20260506191504 16 3 3.2 6.4 0.00 1.80 1.80 78 1011.2
20260506191003 16 358 1.6 6.4 0.00 1.80 1.80 77 1011.1
20260506190503 16 316 1.6 6.4 0.00 1.80 1.80 77 1011.0
20260506190004 17 212 3.2 4.8 0.00 1.80 1.80 77 1010.9
20260506185503 17 198 4.8 12.9 0.00 1.80 1.80 77 1010.8
20260506185003 17 203 4.8 12.9 0.00 1.80 1.80 77 1010.8
20260506184503 17 213 4.8 9.7 0.00 1.80 1.80 77 1010.7
20260506184003 17 212 4.8 8.0 0.00 1.80 1.80 77 1010.7
20260506183503 17 206 4.8 9.7 0.00 1.80 1.80 77 1010.6
20260506183004 17 206 4.8 9.7 0.00 1.80 1.80 77 1010.6
20260506182503 17 205 4.8 9.7 0.00 1.80 1.80 77 1010.5
20260506182003 17 211 6.4 8.0 0.00 1.80 1.80 77 1010.5
20260506181503 17 215 6.4 9.7 0.00 1.80 1.80 77 1010.5
20260506181003 17 212 8.0 11.3 0.00 1.80 1.80 77 1010.4
20260506180503 17 213 8.0 11.3 0.00 1.80 1.80 77 1010.4
20260506180004 17 215 8.0 11.3 0.00 1.80 1.80 77 1010.4
20260506175503 17 213 9.7 11.3 0.00 1.80 1.80 77 1010.3
20260506175003 17 212 9.7 17.7 0.00 1.80 1.80 77 1010.3
20260506174503 17 212 11.3 17.7 0.00 1.80 1.80 77 1010.3
20260506174003 17 210 11.3 16.1 0.00 1.80 1.80 76 1010.2
20260506173503 17 213 9.7 16.1 0.00 1.80 1.80 77 1010.2
20260506173003 17 214 8.0 14.5 0.00 1.80 1.80 77 1010.2